STARLINK-36630

Last updated on Tue Mar 10 2026 00:02:05 GMT+0000 (Coordinated Universal Time)

1 67703U 26025L 26068.58335648 .00026529 00000+0 17840-3 0 9998 2 67703 97.2845 180.2421 0000964 91.3267 97.5145 15.75161923 5843
UTC large
Height (km)
Speed (km/s)
/
Latitude / Longitude
Inclination (degrees)
Orbital Period (minutes)
Azimuth
Elevation
Range (km)
Doppler Factor

Next 0 passes for location: London (51.5072 / 0.1276)

Sorry there are no passes over London.